Wind_Speed
26 26 27 28 29 30 30 31 33 35 39 39 41 42 43 43 43 43 42 41 39 38 37 37 38 37 37 37 36 36 37 38 38 39 40 41 42 44 44 43 41 38 35 33
27 29 28 27 27 28 29 30 32 35 36 36 39 42 43 43 43 44 44 43 42 41 41 41 40 38 37 36 36 37 38 39 40 42 44 44 44 45 43 43 42 39 36 34
30 30 28 27 27 27 28 29 31 33 34 34 36 38 40 41 42 43 43 43 43 42 41 39 38 36 36 36 36 38 39 42 43 45 46 46 46 47 48 45 44 41 38 36
30 30 29 29 29 28 29 31 31 32 32 32 35 35 36 39 39 40 40 40 40 39 38 37 36 35 36 37 38 40 42 43 45 46 47 47 47 48 48 47 44 43 43 40
27 29 30 30 31 31 33 33 32 33 34 34 36 36 32 39 39 39 38 37 37 37 37 37 37 37 38 40 41 42 44 45 46 48 49 49 49 50 50 50 48 46 43 41
23 26 28 30 32 33 34 34 35 36 37 39 37 38 37 39 41 39 38 37 37 37 37 38 39 40 41 42 43 45 46 47 48 49 50 50 51 51 51 50 48 45 41 38
18 21 24 27 29 32 34 35 36 39 40 40 37 42 41 45 43 41 40 40 40 40 41 41 42 43 44 45 45 47 48 49 50 50 51 51 51 51 50 49 46 42 37 36
17 19 22 23 25 28 31 34 37 39 36 33 40 45 45 47 46 45 45 45 45 45 44 44 44 44 45 45 46 47 48 48 49 50 50 50 50 49 48 46 43 39 35 33
19 22 23 23 24 25 27 29 32 37 38 38 40 44 44 43 45 46 46 46 46 46 46 45 45 45 45 46 46 46 47 46 46 45 45 44 43 43 42 41 39 37 34 31
24 27 29 28 28 28 28 28 29 32 35 37 38 38 39 36 38 40 41 42 42 42 42 42 42 42 43 44 44 43 42 41 39 38 37 36 36 36 36 35 32 31 30 28
29 31 33 33 33 31 31 31 31 33 33 33 35 36 35 32 32 34 35 36 37 37 37 36 36 36 37 37 38 37 37 36 35 35 34 33 33 33 32 31 30 29 28 28
29 32 32 33 36 35 36 35 34 34 34 34 33 35 33 31 31 30 31 31 33 34 35 35 35 34 34 34 35 35 36 36 35 35 34 32 31 30 29 28 28 28 27 27
25 28 29 30 33 34 36 37 38 37 37 36 33 35 35 33 31 30 30 31 32 32 33 34 34 34 34 34 35 35 35 35 34 32 32 30 29 29 28 27 27 28 28 29
19 22 25 27 31 32 35 36 36 37 37 35 34 35 37 35 34 32 31 31 31 32 32 33 33 33 33 34 34 33 33 32 32 31 31 31 31 30 30 30 30 30 31 31
19 18 20 24 28 33 34 34 35 35 35 35 33 34 36 35 34 33 32 32 31 31 32 33 33 32 32 32 32 32 32 32 33 33 34 34 34 35 35 36 35 35 35 35
20 17 17 18 20 22 23 25 28 29 30 31 32 33 32 32 31 32 32 33 32 33 33 32 32 32 32 32 33 34 34 35 35 36 37 37 38 39 39 40 41 41 41 41
20 17 16 15 16 16 16 17 18 20 23 25 27 28 27 28 28 29 30 32 33 33 34 32 32 32 32 32 33 34 35 36 36 37 38 40 41 42 43 44 45 46 46 46
20 17 14 13 13 13 14 12 10 12 14 16 18 20 20 22 24 26 27 29 31 32 32 31 30 30 30 31 32 33 34 35 36 36 38 39 41 42 44 45 47 48 49 49
20 18 14 12 11 12 12 10 9 8 9 10 13 15 16 18 20 21 24 25 25 27 28 27 28 28 29 30 31 31 32 32 32 32 33 35 36 38 40 42 44 45 46 47
20 19 16 12 10 9 10 8 7 7 8 9 10 12 13 14 15 16 18 20 21 22 23 24 25 26 26 27 27 27 27 27 28 29 30 31 32 34 35 36 38 39 40 40
17 17 16 13 11 9 8 6 4 5 7 8 9 10 11 12 14 14 15 16 18 19 20 22 22 23 23 23 23 23 23 24 25 26 27 28 28 29 29 29 30 30 30 30
14 14 14 13 12 10 7 5 3 4 5 7 8 9 11 12 13 14 15 16 17 18 19 20 20 20 20 20 20 21 22 22 23 23 23 24 23 23 22 22 22 22 22 23
12 12 11 11 11 10 9 6 4 3 4 5 7 8 10 11 12 13 14 14 15 15 16 17 18 18 18 19 19 20 20 20 20 20 19 19 19 19 19 19 19 19 20 20
13 11 10 8 8 8 8 7 6 5 4 4 5 5 6 7 8 9 9 10 10 11 12 13 14 16 17 17 18 18 17 17 17 17 17 17 17 18 19 19 20 20 21 22
16 14 12 9 7 6 6 6 5 5 5 5 5 6 5 5 5 5 5 5 6 7 8 10 11 12 13 14 15 16 16 16 16 17 17 18 19 20 21 22 22 23 24 25
19 17 15 13 11 8 7 6 5 4 4 4 5 6 7 7 7 7 6 5 5 4 5 6 8 9 11 13 14 15 16 17 18 19 20 21 21 22 23 24 25 25 26 27
Wind_Direction
229 229 228 227 226 227 227 227 231 235 239 239 242 243 243 244 246 248 250 252 254 255 257 259 260 260 260 260 260 259 259 261 264 267 270 272 274 276 277 277 276 275 274 273
229 230 231 231 231 231 229 229 232 237 240 240 243 246 247 248 248 250 252 254 256 258 260 262 263 264 262 260 259 258 259 260 262 265 268 271 274 277 279 280 279 275 273 271
229 232 231 232 233 233 233 232 233 237 241 242 245 248 251 251 251 252 253 254 255 257 259 260 260 260 259 258 258 259 260 261 263 265 267 269 271 275 278 280 282 279 276 273
232 233 233 234 235 235 237 236 236 238 240 243 245 246 251 250 250 252 252 253 253 254 255 256 256 255 255 255 256 258 259 261 263 264 265 267 270 273 275 279 281 280 278 273
237 237 238 239 239 239 241 242 241 241 241 240 244 245 245 252 250 251 251 251 251 251 251 252 252 253 253 254 255 257 258 259 261 263 264 266 268 271 273 276 279 280 279 274
242 243 244 245 245 245 247 248 248 248 247 246 245 247 245 251 251 252 253 252 251 250 250 251 253 255 255 254 255 256 257 258 260 262 264 267 269 271 273 276 278 280 277 271
251 251 250 250 252 251 251 251 252 252 251 254 252 250 250 251 253 253 253 253 252 251 252 253 255 256 256 255 255 255 256 259 261 264 266 269 271 272 273 275 278 278 274 267
258 259 258 255 255 257 255 253 252 253 253 253 254 255 253 255 256 255 254 254 255 255 256 257 258 258 257 256 255 256 258 260 263 266 269 271 272 272 273 273 274 275 272 267
262 261 262 261 261 260 258 255 253 253 252 251 252 259 257 256 256 256 255 255 255 256 256 257 258 259 258 258 258 259 261 263 265 268 270 271 272 272 270 269 269 268 267 265
267 265 265 265 265 261 258 256 254 252 254 254 254 255 259 255 252 252 252 253 253 254 255 256 257 257 257 258 259 260 262 264 266 269 270 271 272 271 268 264 262 262 262 263
269 268 268 267 262 259 257 254 253 253 253 254 254 254 256 256 253 250 249 249 250 251 252 253 254 254 255 255 256 258 260 262 265 269 271 271 272 270 266 263 261 260 260 261
274 270 266 265 263 258 254 252 253 255 254 254 255 256 255 257 255 251 248 247 247 248 249 250 251 253 253 255 256 257 260 262 265 268 270 269 269 267 264 261 259 258 260 263
287 278 272 267 266 261 255 253 254 256 258 258 260 262 258 258 256 254 251 249 248 247 248 249 250 251 253 254 256 257 259 261 263 264 265 264 263 263 261 260 260 262 264 267
305 289 276 263 258 257 258 256 256 257 260 262 264 265 265 263 259 256 254 251 249 248 248 249 250 251 252 253 255 256 257 259 260 261 263 264 263 262 263 262 263 266 269 271
331 310 290 278 271 266 263 260 257 257 257 259 261 263 265 265 263 259 255 252 250 249 251 251 251 250 252 253 255 257 259 261 262 263 265 266 264 265 266 266 267 269 271 273
345 328 310 298 290 283 275 266 261 257 255 256 257 259 261 263 263 261 257 253 251 249 251 250 250 250 252 255 258 261 263 265 266 267 268 268 267 267 268 267 267 268 270 271
354 340 324 310 301 297 290 277 265 259 255 255 257 259 263 264 263 260 255 253 252 252 251 251 251 253 256 259 262 264 265 267 267 268 268 268 268 268 268 267 266 267 267 267
3 353 341 324 312 307 302 301 284 269 263 262 265 267 268 266 263 259 255 253 251 253 251 253 255 256 258 261 263 265 267 268 268 268 269 269 268 268 268 268 267 267 268 268
10 6 357 343 326 314 308 304 294 281 272 269 268 268 269 268 264 261 258 258 259 257 255 255 256 257 259 263 266 269 270 271 271 271 271 271 271 271 270 270 269 269 269 269
12 13 10 3 350 334 318 309 295 278 273 270 269 268 266 265 265 263 263 264 264 264 260 259 260 261 264 266 268 270 272 273 274 274 274 274 274 274 273 272 271 270 269 269
6 13 16 14 8 358 344 325 301 280 274 271 272 273 271 269 269 268 264 264 263 263 262 261 262 263 264 265 267 270 273 275 276 277 277 277 276 276 276 275 273 271 269 267
353 5 14 19 21 13 11 359 332 294 278 275 277 278 276 275 274 273 271 269 267 265 263 261 260 261 262 263 267 273 276 278 279 280 279 277 277 277 276 274 272 270 267 264
332 346 2 16 23 26 26 22 8 337 307 292 287 285 284 283 282 280 278 275 272 268 265 264 262 262 264 267 271 276 278 279 281 281 281 280 279 278 278 275 272 270 268 267
309 318 332 350 9 21 28 33 34 28 7 342 326 315 310 305 299 293 288 282 276 272 269 268 267 266 268 270 273 276 278 282 283 284 284 284 283 280 279 278 275 272 271 269
293 297 304 314 330 351 5 16 26 35 42 40 35 30 22 10 356 342 328 313 297 287 280 277 274 273 272 272 274 276 278 281 283 285 286 286 286 283 281 280 278 275 274 271
281 286 289 294 300 308 317 329 339 349 4 21 29 33 34 32 29 24 16 4 349 329 310 295 285 280 278 278 278 279 280 282 284 286 287 288 287 285 285 283 280 279 276 274
Height
5839 5842 5843 5846 5848 5851 5853 5856 5858 5860 5860 5866 5868 5871 5873 5875 5878 5880 5882 5885 5887 5888 5889 5890 5890 5891 5892 5892 5892 5892 5892 5892 5892 5891 5890 5888 5887 5885 5883 5882 5881 5881 5881 5881
5835 5836 5838 5841 5843 5846 5849 5851 5853 5854 5855 5859 5861 5863 5865 5868 5870 5872 5874 5877 5878 5880 5881 5882 5883 5884 5884 5885 5885 5885 5885 5885 5885 5885 5884 5882 5880 5877 5876 5875 5874 5873 5873 5873
5829 5831 5834 5837 5839 5841 5843 5846 5847 5849 5850 5852 5854 5856 5858 5859 5861 5863 5865 5868 5869 5871 5873 5874 5874 5875 5876 5877 5877 5878 5878 5878 5877 5877 5876 5875 5873 5872 5870 5869 5867 5866 5866 5866
5824 5826 5829 5832 5834 5836 5837 5839 5841 5843 5845 5847 5848 5850 5850 5851 5852 5854 5856 5858 5860 5863 5864 5865 5866 5867 5868 5868 5869 5869 5869 5869 5869 5869 5868 5867 5866 5864 5863 5861 5860 5860 5859 5858
5819 5821 5824 5826 5828 5830 5831 5833 5835 5836 5837 5840 5840 5842 5846 5842 5843 5845 5847 5850 5852 5854 5855 5856 5857 5859 5859 5860 5860 5860 5860 5860 5860 5859 5858 5858 5857 5856 5854 5853 5853 5852 5851 5850
5814 5816 5818 5820 5821 5823 5825 5827 5828 5829 5830 5831 5834 5834 5837 5834 5835 5836 5839 5841 5843 5845 5847 5848 5849 5850 5850 5851 5851 5851 5851 5851 5850 5849 5849 5848 5848 5847 5846 5844 5843 5842 5842 5842
5811 5812 5812 5814 5815 5816 5818 5820 5821 5821 5822 5823 5825 5824 5827 5824 5827 5828 5830 5832 5834 5836 5837 5838 5839 5840 5841 5841 5842 5842 5842 5841 5841 5840 5839 5839 5838 5837 5836 5835 5834 5833 5832 5833
5807 5809 5807 5808 5809 5809 5809 5811 5812 5813 5815 5816 5812 5814 5817 5816 5817 5818 5820 5821 5823 5824 5826 5827 5829 5829 5830 5831 5832 5832 5832 5832 5831 5831 5830 5829 5828 5827 5826 5826 5825 5824 5824 5824
5803 5804 5802 5802 5802 5802 5801 5801 5802 5802 5802 5803 5803 5803 5803 5806 5806 5807 5808 5810 5811 5813 5814 5816 5817 5818 5819 5820 5821 5822 5822 5822 5822 5821 5820 5819 5818 5817 5816 5816 5816 5815 5816 5816
5798 5798 5796 5795 5795 5794 5794 5793 5793 5792 5791 5791 5793 5794 5793 5794 5795 5796 5797 5798 5800 5801 5803 5804 5806 5807 5808 5810 5811 5812 5812 5812 5812 5812 5811 5810 5809 5807 5807 5807 5806 5807 5807 5808
5791 5790 5789 5787 5786 5786 5786 5785 5784 5783 5782 5783 5783 5785 5783 5784 5785 5786 5787 5788 5790 5792 5793 5794 5796 5797 5798 5800 5801 5802 5803 5803 5803 5803 5802 5801 5800 5800 5799 5799 5799 5799 5799 5800
5782 5781 5780 5778 5776 5775 5775 5775 5775 5775 5774 5773 5773 5776 5774 5774 5775 5776 5778 5780 5781 5783 5784 5785 5787 5788 5789 5791 5792 5793 5794 5794 5795 5795 5794 5793 5793 5792 5792 5792 5792 5792 5792 5793
5774 5771 5770 5769 5768 5766 5764 5764 5764 5763 5763 5763 5764 5767 5764 5765 5766 5768 5769 5771 5772 5774 5775 5777 5778 5779 5781 5782 5783 5784 5785 5785 5786 5786 5786 5786 5785 5785 5785 5785 5785 5785 5785 5785
5766 5762 5761 5759 5757 5754 5753 5753 5753 5753 5754 5754 5755 5755 5753 5755 5757 5759 5761 5762 5763 5765 5767 5768 5769 5771 5772 5773 5774 5775 5776 5777 5778 5778 5778 5778 5778 5778 5778 5777 5777 5777 5777 5777
5759 5755 5751 5748 5746 5744 5742 5743 5743 5744 5744 5746 5746 5746 5745 5746 5748 5750 5752 5753 5755 5756 5758 5760 5761 5763 5764 5765 5766 5767 5768 5769 5769 5770 5770 5770 5770 5769 5769 5769 5769 5769 5769 5768
5753 5749 5745 5742 5738 5736 5734 5734 5734 5735 5736 5737 5738 5738 5738 5738 5740 5742 5743 5745 5746 5748 5749 5751 5753 5754 5756 5757 5758 5759 5760 5760 5760 5760 5760 5760 5760 5759 5759 5759 5759 5759 5759 5759
5750 5745 5741 5737 5734 5731 5730 5728 5728 5728 5728 5730 5731 5731 5731 5732 5733 5734 5736 5737 5738 5739 5741 5742 5744 5746 5747 5749 5749 5750 5750 5750 5750 5750 5749 5749 5748 5748 5748 5747 5747 5747 5747 5747
5748 5742 5738 5734 5731 5729 5727 5724 5723 5723 5723 5724 5724 5725 5725 5726 5727 5728 5729 5730 5730 5731 5733 5734 5735 5737 5738 5740 5740 5741 5741 5740 5740 5739 5739 5738 5737 5736 5735 5735 5735 5734 5734 5734
5746 5740 5736 5732 5729 5726 5724 5721 5720 5720 5720 5720 5720 5720 5721 5721 5721 5722 5722 5723 5723 5724 5725 5726 5727 5729 5730 5731 5731 5731 5731 5730 5730 5729 5728 5727 5726 5725 5724 5723 5722 5722 5722 5722
5745 5740 5735 5730 5727 5724 5722 5719 5717 5718 5717 5717 5716 5716 5716 5716 5716 5716 5716 5716 5716 5717 5718 5719 5720 5721 5722 5722 5722 5722 5722 5721 5720 5719 5718 5717 5716 5715 5713 5712 5711 5710 5710 5710
5745 5740 5735 5730 5726 5723 5720 5717 5716 5716 5716 5714 5713 5712 5711 5711 5711 5711 5710 5710 5710 5711 5711 5712 5713 5714 5714 5715 5715 5714 5714 5713 5712 5711 5709 5708 5707 5705 5704 5702 5701 5700 5700 5700
5744 5740 5735 5730 5726 5725 5719 5716 5715 5715 5712 5711 5710 5709 5708 5707 5706 5705 5704 5704 5704 5704 5705 5705 5706 5707 5708 5708 5708 5708 5707 5705 5704 5703 5702 5700 5699 5698 5696 5695 5694 5693 5693 5693
5742 5739 5735 5731 5729 5723 5719 5716 5714 5712 5710 5709 5708 5706 5705 5703 5702 5701 5700 5699 5699 5699 5699 5699 5700 5701 5702 5702 5702 5701 5700 5699 5698 5696 5695 5694 5693 5692 5691 5690 5689 5688 5687 5687
5739 5736 5733 5730 5726 5723 5719 5716 5714 5711 5709 5708 5706 5704 5702 5700 5699 5697 5696 5694 5694 5694 5694 5694 5695 5695 5696 5696 5695 5695 5694 5693 5692 5691 5690 5689 5688 5686 5685 5684 5683 5682 5682 5681
5734 5732 5730 5728 5725 5722 5719 5716 5714 5711 5709 5707 5705 5703 5700 5699 5697 5695 5693 5692 5691 5690 5690 5690 5690 5690 5690 5690 5690 5689 5688 5688 5686 5686 5684 5683 5682 5681 5679 5678 5677 5676 5675 5674
5728 5728 5726 5725 5723 5720 5718 5715 5713 5711 5709 5707 5705 5702 5700 5698 5696 5694 5692 5690 5689 5688 5687 5686 5686 5686 5686 5685 5685 5684 5684 5683 5682 5680 5679 5677 5676 5674 5672 5671 5670 5668 5667 5666